View from above orbital plane
|
View from above satellite
|
Ground track
|
The orbit data is extracted from the following two-line orbital elements,
1 27640U 03001A 21109.91844168 .00000012 00000-0 26695-4 0 9992
2 27640 98.7241 120.6221 0013251 232.9351 187.7127 14.19067293946906
Epoch (UTC): | 19 April 2021 22:02:33 |
Eccentricity: | 0.0013251 |
inclination: | 98.7241° |
perigee height: | 819 km |
apogee height: | 838 km |
right ascension of ascending node: | 120.6221° |
argument of perigee: | 232.9351° |
revolutions per day: | 14.19067293 |
mean anomaly at epoch: | 187.7127° |
orbit number at epoch: | 94690 |
The dashed part of the orbit path shows where the satellite is in the earth's shadow,
|
|